Regional Weather Roundup
Issued by NWS

Home | Current Version | Previous Version | Graphics & Text | Print | Product List | Glossary On
Versions: 1 2 3 4 5 6 7 8 9 10 11 12 13 14 15 16 17 18 19 20 21 22 23 24 25 26 27 28 29 30 31 32 33 34 35 36 37 38 39 40 41 42 43 44 45 46 47 48 49 50
000
ASUS43 KBIS 310410
RWRND

NORTH DAKOTA REGIONAL WEATHER ROUNDUP
NATIONAL WEATHER SERVICE BISMARCK ND
1100 PM CDT SAT AUG 30 2014

NOTE: "FAIR" INDICATES FEW OR NO CLOUDS BELOW 12,000 FEET WITH NO
SIGNIFICANT WEATHER AND/OR OBSTRUCTIONS TO VISIBILITY.


NDZ001>003-009>011-017-310500-
NORTHWEST NORTH DAKOTA

CITY           SKY/WX    TMP DP  RH WIND       PRES   REMARKS
WILLISTON      MOCLDY    61  58  90 CALM      29.70F
MINOT AFB      CLOUDY    64  57  79 SE10      29.67S
$$

NDZ018>021-031>035-040>046-310500-
SOUTHWEST NORTH DAKOTA

CITY           SKY/WX    TMP DP  RH WIND       PRES   REMARKS
BISMARCK       CLOUDY    65  58  78 E9        29.71F THUNDER
DICKINSON      LGT RAIN  63  61  93 S6        29.69F
GARRISON         N/A     65  58  78 SE10      29.69S
HETTINGER ARPT CLOUDY    61  60  97 NE14G23   29.70F
$$

NDZ004>008-012>016-024-026-027-054-310500-
NORTHEAST NORTH DAKOTA

CITY           SKY/WX    TMP DP  RH WIND       PRES   REMARKS
GRAND FORKS    CLEAR     61  58  90 SE8       29.76F
GRND FRKS AFB  CLEAR     60  59  99 S8        29.76F
DEVILS LAKE    CLEAR     63  54  72 S13       29.74R
$$

NDZ022-023-025-028>030-036>039-047>053-310500-
SOUTHEAST NORTH DAKOTA

CITY           SKY/WX    TMP DP  RH WIND       PRES   REMARKS
FARGO          CLEAR     62  58  86 SE8       29.77F
JAMESTOWN      PTCLDY    60  58  92 SE12      29.78R
$$



USA.gov is the U.S. government's official web portal to all federal, state and local government web resources and services.